Regional Weather Roundup
Issued by NWS

Home | Current Version | Previous Version | Graphics & Text | Print | Product List | Glossary On
Versions: 1 2 3 4 5 6 7 8 9 10 11 12 13 14 15 16 17 18 19 20 21 22 23 24 25 26 27 28 29 30 31 32 33 34 35 36 37 38 39 40 41 42 43 44 45 46 47 48 49 50
000
ASUS45 KTFX 312210
RWRMT
MONTANA REGIONAL WEATHER ROUNDUP
NATIONAL WEATHER SERVICE GREAT FALLS MT
400 PM MDT TUE MAY 31 2016

NOTE: "FAIR" INDICATES FEW OR NO CLOUDS BELOW 12000 FEET WITH NO
SIGNIFICANT WEATHER AND/OR OBSTRUCTIONS TO VISIBILITY.

MTZ001>007-043-312300-
WEST OF THE DIVIDE

CITY           SKY/WX    TMP DP  RH WIND       PRES   REMARKS
KALISPELL      MOSUNNY   69  34  27 VRB6      30.12F
MISSOULA       SUNNY     72  33  24 NE7       30.12F
BUTTE          MOSUNNY   59  27  29 CALM      30.18F
MULLAN PASS    SUNNY     56  24  29 VRB3      30.19F
ANACONDA         N/A     61  32  33 N7        30.16F
DEER LODGE       N/A     59  30  33 NE3       30.18F
EUREKA           N/A     70  32  24 CALM      30.11F
HAMILTON         N/A     70  30  23 NW8       30.10F
LIBBY            N/A     72  30  21 SE3       30.10F
$$

MTZ008-052>055-312300-
SOUTHWEST MONTANA

CITY           SKY/WX    TMP DP  RH WIND       PRES   REMARKS
BOZEMAN        MOSUNNY   62  35  36 N3        30.19F
DILLON         MOSUNNY   61  29  29 NE7       30.16F
W YELLOWSTONE  MOSUNNY   57  27  30 N8        30.18F
ENNIS          SUNNY     59  32  36 NE13      30.24F
$$

MTZ009-010-012-014-046-048-049-054-312300-
EAST SLOPES AND CENTRAL MONTANA

CITY           SKY/WX    TMP DP  RH WIND       PRES   REMARKS
CUT BANK       MOSUNNY   62  32  32 N12       30.17F
GREAT FALLS    SUNNY     62  33  33 NW15      30.17F
MALMSTROM AFB  MOSUNNY   63  33  32 NW14      30.17F
HELENA         SUNNY     66  33  29 NE8       30.17F
CHOTEAU          N/A     61  36  39 N7        30.20F
$$

MTZ011-013-016-021-045-047-050-051-312300-
NORTH CENTRAL MONTANA

CITY           SKY/WX    TMP DP  RH WIND       PRES   REMARKS
HAVRE          CLOUDY    62  46  55 NW16      30.13F
LEWISTOWN      CLOUDY    55  43  63 NW6       30.18F
N BAR RANCH    PTSUNNY   52  39  62 NW23G31   30.18F
CHINOOK          N/A     59  52  77 W9        30.12S
$$

MTZ017>020-022>027-061-062-312300-
NORTHEAST MONTANA

CITY           SKY/WX    TMP DP  RH WIND       PRES   REMARKS
GLASGOW        PTSUNNY   62  43  49 N30G37    30.01R
JORDAN           N/A     58  50  75 NW24      30.06
SIDNEY         CLOUDY    57  50  77 N21       29.91R
WOLF POINT     CLOUDY    65  47  52 N17G28    29.95F
PLENTYWOOD       N/A     55  52  88 N17G24    29.91S
POPLAR           N/A     59  46  63 N26G35    29.94S
$$

MTZ028>42-056>058-312300-
SOUTHCENTRAL AND SOUTHEAST MONTANA

CITY           SKY/WX    TMP DP  RH WIND       PRES   REMARKS
BAKER          LGT RAIN  51  32  48 NW17G31   29.98R
BILLINGS       MOSUNNY   63  37  38 N13G20    30.14F
LIVINGSTON     PTSUNNY   62  34  35 W10       30.17S
MILES CITY     CLOUDY    60  50  69 NW12      30.02F
FORSYTH          N/A     59  45  58 W13G29    30.07R
$$

REGIONAL REPORTS...DAKOTAS

CITY           SKY/WX    TMP DP  RH WIND       PRES   REMARKS
WILLISTON      LGT RAIN  54  49  83 N20G32    29.87R
MINOT          CLOUDY    67  55  65 NW22G29   29.64R
DICKINSON      LGT RAIN  49  45  86 NW31G40   29.82R
BEACH          CLOUDY    52  52 100 NW24G33   29.95R
CROSBY         RAIN      50  50 100 NW22G31   29.87S
WATFORD CITY   LGT RAIN  50  50 100 NW25      29.85R
BISMARCK       CLOUDY    58  52  80 NW6       29.64S
GRAND FORKS    PTSUNNY   67  49  52 S14       29.67F
FARGO          PTSUNNY   70  44  39 S21G30    29.70F
BUFFALO SD       N/A     53  47  79 NW29      29.90R
RAPID CITY     PTSUNNY   61  40  45 NW23G32   30.00R
$$

REGIONAL REPORTS...WYOMING/IDAHO/WASHINGTON

CITY           SKY/WX    TMP DP  RH WIND       PRES   REMARKS
GILLETTE       MOSUNNY   56  40  55 NW26G37   30.10S
SHERIDAN       SUNNY     61  41  47 NW22G32   30.14S
BUFFALO WY     CLOUDY    55  38  52 N24G40    30.14R
CODY           SUNNY     61  36  39 NE10G18   30.13S
YELLOWSTONE LA   N/A     53  24  32 VRB5      30.24F
IDAHO FALLS    SUNNY     68  29  23 VRB5      30.12F
SALMON         SUNNY     70  30  23 N6        30.05F
BOISE          SUNNY     78  17  10 VRB5      30.05F
SPOKANE        MOSUNNY   75  32  20 VRB3      30.10F
$$

REGIONAL REPORTS...ALBERTA

CITY           SKY/WX    TMP DP  RH WIND       PRES   REMARKS
EDMONTON       MOSUNNY   63  43  48 S7        30.10F
CALGARY        MOSUNNY   63  32  31 NE9       30.12F
LETHBRIDGE     MOSUNNY   63  36  36 W7G24     30.15F
MEDICINE HAT   LGT RAIN  61  48  63 NW16      30.12F
WATERTON GATE    N/A     61  37  41 E7G17       N/A
CARDSTON         N/A     63  32  31 W2          N/A
MILK RIVER       N/A     61  39  44 N9          N/A
ONEFOUR          N/A     55  45  67 NW14        N/A
$$

REGIONAL REPORTS...SASKATCHEWAN

CITY           SKY/WX    TMP DP  RH WIND       PRES   REMARKS
SWIFT CURRENT  CLOUDY    55  48  76 N13       30.04S
REGINA         CLOUDY    54  50  87 N15G21    29.96R
SASKATOON      PTSUNNY   63  45  51 N13G21    30.05S
CYPRESS HILLS    N/A     50  46  87 NW8         N/A
VAL MARIE        N/A     50  48  93 N17         N/A
ROCKGLEN         N/A     54  46  76 N21G30      N/A
ASSINIBOIA       N/A     63  45  51 NW6         N/A
$$



USA.gov is the U.S. government's official web portal to all federal, state and local government web resources and services.